Lancaster, PA

8:25 PM EDT on August 16, 2017 (GMT -0400)
Lancaster

Weather History for KLNS - January, 2000

Change the Weather History Date:

Wednesday, January 19, 2000

  Actual Average Record
Temperature  
Mean Temperature 24 °F -  
Max Temperature 36 °F 37 °F 67 °F (1990)
Min Temperature 12 °F 21 °F 3 °F (1997)
Degree Days  
Heating Degree Days 41    
Moisture  
Dew Point 12 °F    
Average Humidity 60    
Maximum Humidity 82    
Minimum Humidity 39    
Precipitation  
Precipitation 0.00 in - - ()
Sea Level Pressure  
Sea Level Pressure 29.93 in    
Wind  
Wind Speed 5 mph (WNW)    
Max Wind Speed 17 mph    
Max Gust Speed -    
Visibility 10 miles    
Events Snow    
Averages and records for this station are not official NWS values.
T = Trace of Precipitation, MM = Missing Value Source: NWS Daily Summary

Daily Weather History Graph

Daily Weather History Graph

Search for Another Location

Airport or City:

Trip Planner

Search our weather history database for the weather conditions in past years. The results will help you decide how hot, cold, wet, or windy it might be!

Date:

Astronomy

Jan. 19, 2000 Rise Set
Actual Time 7:23 AM EST 5:08 PM EST
Civil Twilight 6:54 AM EST 5:37 PM EST
Nautical Twilight 6:21 AM EST 6:10 PM EST
Astronomical Twilight 5:48 AM EST 6:43 PM EST
Moon 3:41 PM EST (1/19) 5:44 AM EST (1/19)
Length of Visible Light 10h 43m
Length of Day
9h 44m
Waxing Gibbous, 97% of the Moon is Illuminated
Jan 19
Waxing Gibbous
Jan 20
Full
Jan 28
Last Quarter
Feb 5
New
Feb 12
First Quarter

Hourly Weather History & Observations

Time (EST) Temp. Windchill Dew Point Humidity Pressure Visibility Wind Dir Wind Speed Gust Speed Precip Events Conditions
12:53 AM 12.9 °F 6.9 °F 3.9 °F 67% 29.96 in 10.0 mi West 3.5 mph - N/A   Overcast
1:53 AM 15.1 °F 9.4 °F 3.9 °F 61% 29.96 in 10.0 mi West 3.5 mph - N/A   Overcast
2:53 AM 16.0 °F 10.4 °F 3.0 °F 57% 29.94 in 10.0 mi WSW 3.5 mph - N/A   Overcast
3:53 AM 17.1 °F 11.7 °F 3.9 °F 56% 29.93 in 10.0 mi West 3.5 mph - N/A   Overcast
4:53 AM 18.0 °F 12.7 °F 6.1 °F 60% 29.94 in 10.0 mi West 3.5 mph - N/A   Overcast
5:53 AM 19.0 °F 12.3 °F 6.1 °F 57% 29.93 in 10.0 mi West 4.6 mph - N/A   Overcast
6:53 AM 19.0 °F 11.1 °F 8.1 °F 62% 29.95 in 10.0 mi West 5.8 mph - N/A   Overcast
7:53 AM 18.0 °F 9.8 °F 9.0 °F 68% 29.96 in 7.0 mi West 5.8 mph - 0.00 in Snow Light Snow
8:53 AM 21.0 °F 11.4 °F 10.9 °F 65% 29.97 in 7.0 mi West 8.1 mph - 0.00 in Snow Light Snow
9:53 AM 23.0 °F 14.7 °F 16.0 °F 74% 29.99 in 10.0 mi NW 6.9 mph - 0.00 in   Mostly Cloudy
10:53 AM 28.0 °F 15.7 °F 14.0 °F 56% 29.98 in 10.0 mi NW 17.3 mph - 0.00 in   Partly Cloudy
11:53 AM 30.9 °F 21.7 °F 12.9 °F 47% 29.95 in 10.0 mi NNW 11.5 mph - N/A   Clear
12:53 PM 30.9 °F 21.7 °F 12.0 °F 46% 29.93 in 10.0 mi NW 11.5 mph - N/A   Partly Cloudy
1:53 PM 34.0 °F 24.6 °F 12.0 °F 40% 29.91 in 10.0 mi WNW 13.8 mph - N/A   Partly Cloudy
2:53 PM 36.0 °F 28.5 °F 12.9 °F 39% 29.91 in 10.0 mi NW 10.4 mph - N/A   Mostly Cloudy
3:53 PM 34.0 °F 26.0 °F 14.0 °F 44% 29.91 in 10.0 mi NW 10.4 mph - N/A   Overcast
4:53 PM 30.9 °F 25.2 °F 14.0 °F 50% 29.93 in 10.0 mi WNW 5.8 mph - N/A   Overcast
5:53 PM 30.0 °F 26.5 °F 15.1 °F 54% 29.94 in 10.0 mi West 3.5 mph - N/A   Mostly Cloudy
6:53 PM 28.0 °F - 15.1 °F 58% 29.94 in 10.0 mi Calm Calm - N/A   Scattered Clouds
7:53 PM 26.1 °F - 16.0 °F 66% 29.93 in 10.0 mi Calm Calm - N/A   Clear
8:53 PM 21.9 °F - 17.1 °F 82% 29.91 in 10.0 mi Calm Calm - N/A   Clear
9:53 PM 23.0 °F - 17.1 °F 78% 29.89 in 10.0 mi Calm Calm - N/A   Clear
10:53 PM 24.1 °F 17.0 °F 19.0 °F 81% 29.86 in 8.0 mi East 5.8 mph - N/A   Clear
11:53 PM 24.1 °F 18.2 °F 19.0 °F 81% 29.84 in 7.0 mi East 4.6 mph - N/A   Scattered Clouds